FWO584 Weather Reports


time (UTC)temp
C
wind
direction
speed
KPH
gust
KPH
rain 1hr
cm
rain 24hr
cm
rain mn
cm
humidity
%
barometer
mb
20260506223404 13 325 1.6 8.0 0.00 0.23 0.00 86 1013.5
20260506213905 13 284 0.0 3.2 0.00 0.23 0.23 86 1013.4
20260506213405 13 284 1.6 4.8 0.00 0.23 0.23 86 1013.5
20260506210904 14 252 0.0 0.0 0.00 0.23 0.23 86 1013.3
20260506210405 14 252 0.0 0.0 0.00 0.23 0.23 86 1013.4
20260506203904 14 265 0.0 1.6 0.00 0.23 0.23 86 1013.2
20260506203404 14 337 1.6 4.8 0.00 0.23 0.23 86 1013.1
20260506200905 14 283 1.6 4.8 0.18 0.23 0.23 85 1012.7
20260506200404 14 324 1.6 4.8 0.20 0.23 0.23 85 1012.7
20260506193904 15 245 1.6 4.8 0.20 0.23 0.23 84 1012.3
20260506193405 15 275 3.2 4.8 0.20 0.23 0.23 83 1012.2
20260506190905 15 308 3.2 4.8 0.03 0.05 0.05 81 1011.9
20260506190403 15 295 1.6 8.0 0.00 0.03 0.03 81 1011.8
20260506183905 16 267 1.6 4.8 0.00 0.03 0.03 81 1011.3
20260506180904 16 148 9.7 16.1 0.00 0.03 0.03 80 1010.9
20260506180405 16 150 12.9 27.4 0.00 0.03 0.03 80 1010.8
20260506173904 16 148 11.3 19.3 0.00 0.03 0.03 79 1010.7
20260506173404 16 145 9.7 25.7 0.00 0.03 0.03 78 1010.6
20260506170403 16 154 20.9 32.2 0.00 0.03 0.03 77 1010.5
20260506163905 17 160 14.5 25.7 0.00 0.03 0.03 75 1010.4
20260506163404 17 161 16.1 33.8 0.00 0.03 0.03 75 1010.3
20260506160904 17 129 16.1 24.1 0.00 0.03 0.03 75 1010.1
20260506160405 17 133 16.1 33.8 0.00 0.03 0.03 75 1010.1
20260506153905 17 149 22.5 35.4 0.00 0.03 0.03 71 1010.2
20260506150905 17 138 16.1 29.0 0.00 0.03 0.03 70 1010.1
20260506150405 17 144 20.9 33.8 0.00 0.03 0.03 71 1010.0
20260506143905 17 131 17.7 35.4 0.00 0.03 0.03 70 1010.2
20260506143405 17 157 20.9 37.0 0.00 0.03 0.03 69 1010.3
20260506140904 17 140 19.3 37.0 0.00 0.03 0.03 71 1010.3
20260506140404 17 138 22.5 33.8 0.00 0.03 0.03 70 1010.5
20260506133904 18 145 19.3 29.0 0.00 0.03 0.03 67 1010.7
20260506133404 18 169 16.1 32.2 0.00 0.03 0.03 68 1010.8
20260506130403 17 149 20.9 33.8 0.00 0.03 0.03 70 1011.1
20260506123905 17 164 20.9 33.8 0.00 0.03 0.03 68 1011.2
20260506123405 17 164 22.5 38.6 0.00 0.03 0.03 68 1011.2
20260506120405 17 111 17.7 33.8 0.00 0.03 0.03 68 1011.1
20260506113906 17 123 17.7 29.0 0.00 0.03 0.03 71 1011.1
20260506113404 17 132 22.5 37.0 0.00 0.03 0.03 70 1011.1
20260506110904 16 138 20.9 32.2 0.00 0.03 0.03 74 1011.4
20260506110404 16 118 16.1 29.0 0.00 0.03 0.03 75 1011.4
20260506103905 16 124 20.9 33.8 0.00 0.03 0.03 73 1011.6
20260506103405 17 114 19.3 29.0 0.00 0.03 0.03 73 1011.7
20260506100905 16 149 20.9 32.2 0.00 0.03 0.03 73 1011.8
20260506100404 17 151 14.5 33.8 0.00 0.03 0.03 72 1011.8
20260506093904 17 167 17.7 24.1 0.00 0.03 0.03 68 1011.8
20260506093403 17 155 19.3 27.4 0.00 0.03 0.03 68 1011.7
20260506090905 17 130 16.1 29.0 0.00 0.03 0.03 68 1011.4
20260506090405 17 152 17.7 27.4 0.00 0.03 0.03 68 1011.4
20260506083905 17 162 8.0 12.9 0.00 0.03 0.03 70 1011.3
20260506083407 17 166 14.5 25.7 0.00 0.03 0.03 70 1011.3
20260506080905 15 223 3.2 11.3 0.00 0.03 0.03 80 1011.3
20260506073405 13 255 1.6 4.8 0.00 0.03 0.03 86 1011.1
20260506070904 12 307 1.6 4.8 0.00 0.03 0.03 87 1011.1
20260506070405 12 311 3.2 4.8 0.00 0.03 0.03 87 1011.0
20260506060905 8 143 0.0 0.0 0.00 0.05 0.03 87 1011.0
20260506050904 7 0 0.0 1.6 0.00 0.05 0.03 87 1010.5
20260506050404 7 0 3.2 4.8 0.00 0.05 0.03 87 1010.4
20260506043905 7 0 0.0 3.2 0.00 0.05 0.03 87 1010.1
20260506043405 7 0 1.6 4.8 0.00 0.05 0.03 87 1010.2
20260506040904 7 0 0.0 0.0 0.00 0.05 0.03 87 1010.1
20260506040404 7 0 0.0 0.0 0.00 0.05 0.03 87 1010.1
20260506033905 7 0 0.0 0.0 0.00 0.05 0.03 87 1010.1
20260506030905 7 0 0.0 0.0 0.00 0.05 0.03 87 1010.1
20260506030405 8 0 0.0 0.0 0.00 0.05 0.03 86 1010.1
20260506023904 8 0 0.0 0.0 0.00 0.05 0.03 86 1010.0
20260506020905 8 0 0.0 1.6 0.00 0.05 0.03 86 1009.9
20260506020405 8 0 3.2 4.8 0.00 0.05 0.03 86 1009.9
20260506013904 9 0 0.0 0.0 0.00 0.05 0.03 86 1009.7
20260506013404 9 0 0.0 3.2 0.00 0.05 0.03 86 1009.8
20260506010904 10 0 0.0 3.2 0.03 0.05 0.03 86 1009.7
20260506010404 10 0 1.6 4.8 0.03 0.05 0.03 86 1009.8
20260506003905 10 0 0.0 3.2 0.03 0.05 0.03 85 1010.0
20260506003404 10 0 0.0 4.8 0.03 0.05 0.03 85 1010.1
20260506000904 11 202 0.0 4.8 0.00 0.03 0.00 85 1010.0
20260506000404 11 315 3.2 8.0 0.00 0.03 0.00 85 1010.1
20260505233904 11 127 0.0 4.8 0.00 0.03 0.00 85 1009.9
20260505233404 11 120 4.8 4.8 0.00 0.03 0.00 85 1009.9
20260505230904 11 171 3.2 8.0 0.00 0.03 0.00 84 1010.6
20260505230404 11 154 0.0 0.0 0.00 0.03 0.00 84 1010.6